Branson, MO

12:37 AM CST on November 23, 2017 (GMT -0600)
Branson

Weather History for KBBG - March, 2014

Change the Weather History Date:

Sunday, March 30, 2014

  Actual Average (KHRO) Record (KHRO)
Temperature  
Mean Temperature 52 °F -  
Max Temperature 68 °F 61 °F 84 °F (1963)
Min Temperature 35 °F 41 °F 17 °F (1964)
Degree Days  
Heating Degree Days 14    
Growing Degree Days 2 (Base 50)    
Moisture  
Dew Point 34 °F    
Average Humidity 59    
Maximum Humidity 87    
Minimum Humidity 26    
Precipitation  
Precipitation 0.00 in - - ()
Sea Level Pressure  
Sea Level Pressure 30.16 in    
Wind  
Wind Speed 4 mph (SE)    
Max Wind Speed 15 mph    
Max Gust Speed 21 mph    
Visibility 10 miles    
Events      
Averages and records for this station are not official NWS values.
T = Trace of Precipitation, MM = Missing Value Source: NWS Daily Summary

Daily Weather History Graph

Daily Weather History Graph

Search for Another Location

Airport or City:

Trip Planner

Search our weather history database for the weather conditions in past years. The results will help you decide how hot, cold, wet, or windy it might be!

Date:

Astronomy

Mar. 30, 2014 Rise Set
Actual Time 7:01 AM CDT 7:33 PM CDT
Civil Twilight 6:35 AM CDT 7:59 PM CDT
Nautical Twilight 6:05 AM CDT 8:29 PM CDT
Astronomical Twilight 5:34 AM CDT 9:01 PM CDT
Moon 6:47 AM CDT (3/30) 7:45 PM CDT (3/30)
Length of Visible Light 13h 23m
Length of Day
12h 31m
Waning Crescent, 0% of the Moon is Illuminated
Mar 30
Waning Crescent
Mar 30
New
Apr 7
First Quarter
Apr 15
Full
Apr 22
Last Quarter

Hourly Weather History & Observations

Time (CDT) Temp. Windchill Dew Point Humidity Pressure Visibility Wind Dir Wind Speed Gust Speed Precip Events Conditions
12:15 AM 41.0 °F - 32.0 °F 70% 30.26 in 10.0 mi Calm Calm - N/A   Clear
12:35 AM 42.8 °F - 32.0 °F 66% 30.26 in 10.0 mi Calm Calm - N/A   Clear
12:55 AM 41.0 °F - 32.0 °F 70% 30.26 in 10.0 mi Calm Calm - N/A   Clear
1:15 AM 39.2 °F - 32.0 °F 75% 30.27 in 10.0 mi Calm Calm - N/A   Clear
1:35 AM 41.0 °F - 32.0 °F 70% 30.27 in 10.0 mi Calm Calm - N/A   Clear
1:55 AM 39.2 °F - 32.0 °F 75% 30.26 in 10.0 mi Calm Calm - N/A   Clear
2:15 AM 39.2 °F - 32.0 °F 75% 30.25 in 10.0 mi Calm Calm - N/A   Clear
2:35 AM 39.2 °F - 32.0 °F 75% 30.25 in 10.0 mi Calm Calm - N/A   Clear
2:55 AM 37.4 °F - 32.0 °F 81% 30.24 in 10.0 mi Calm Calm - N/A   Clear
3:15 AM 39.2 °F 37.0 °F 30.2 °F 70% 30.23 in 10.0 mi SE 3.5 mph - N/A   Clear
3:35 AM 39.2 °F 37.0 °F 30.2 °F 70% 30.23 in 10.0 mi ESE 3.5 mph - N/A   Clear
3:55 AM 39.2 °F 37.0 °F 32.0 °F 75% 30.22 in 10.0 mi ESE 3.5 mph - N/A   Clear
4:15 AM 39.2 °F 35.9 °F 32.0 °F 75% 30.22 in 10.0 mi SE 4.6 mph - N/A   Clear
4:35 AM 39.2 °F - 32.0 °F 75% 30.22 in 10.0 mi Calm Calm - N/A   Clear
4:55 AM 37.4 °F 34.9 °F 30.2 °F 75% 30.22 in 10.0 mi South 3.5 mph - N/A   Clear
5:15 AM 35.6 °F 32.8 °F 32.0 °F 87% 30.22 in 10.0 mi SSE 3.5 mph - N/A   Clear
5:35 AM 37.4 °F 33.8 °F 30.2 °F 75% 30.21 in 10.0 mi SSE 4.6 mph - N/A   Clear
5:55 AM 39.2 °F 35.9 °F 30.2 °F 70% 30.22 in 10.0 mi South 4.6 mph - N/A   Clear
6:15 AM 41.0 °F 37.1 °F 32.0 °F 70% 30.21 in 10.0 mi SSE 5.8 mph - N/A   Clear
6:35 AM 41.0 °F 36.4 °F 32.0 °F 70% 30.22 in 10.0 mi SSE 6.9 mph - N/A   Clear
6:53 AM 41.0 °F 35.2 °F 32.0 °F 70% 30.22 in 10.0 mi SE 9.2 mph - N/A   Partly Cloudy
7:55 AM 41.0 °F 35.8 °F 32.0 °F 70% 30.23 in 10.0 mi SSE 8.1 mph - N/A   Partly Cloudy
8:48 AM 46.4 °F 41.9 °F 33.8 °F 62% 30.23 in 10.0 mi SE 9.2 mph - N/A   Partly Cloudy
9:46 AM 50.0 °F - 33.8 °F 54% 30.22 in 10.0 mi SSE 9.2 mph - N/A   Scattered Clouds
10:45 AM 53.6 °F - 35.6 °F 51% 30.22 in 10.0 mi SE 11.5 mph - N/A   Scattered Clouds
11:45 AM 57.2 °F - 35.6 °F 44% 30.21 in 10.0 mi SSE 6.9 mph - N/A   Mostly Cloudy
12:46 PM 60.8 °F - 35.6 °F 39% 30.19 in 10.0 mi SSE 8.1 mph 16.1 mph N/A   Scattered Clouds
1:47 PM 64.4 °F - 35.6 °F 34% 30.15 in 10.0 mi South 12.7 mph 18.4 mph N/A   Mostly Cloudy
2:45 PM 68.0 °F - 35.6 °F 30% 30.11 in 10.0 mi SE 10.4 mph - N/A   Scattered Clouds
3:45 PM 68.0 °F - 33.8 °F 28% 30.08 in 10.0 mi SSE 10.4 mph 16.1 mph N/A   Mostly Cloudy
4:45 PM 68.0 °F - 32.0 °F 26% 30.05 in 10.0 mi SE 9.2 mph - N/A   Overcast
5:45 PM 68.0 °F - 32.0 °F 26% 30.04 in 10.0 mi SSE 15.0 mph - N/A   Scattered Clouds
6:50 PM 66.2 °F - 32.0 °F 28% 30.03 in 10.0 mi SSE 12.7 mph - N/A   Mostly Cloudy
7:45 PM 62.6 °F - 32.0 °F 32% 30.02 in 10.0 mi SSE 10.4 mph - N/A   Mostly Cloudy
8:45 PM 59.0 °F - 37.4 °F 45% 30.02 in 10.0 mi South 13.8 mph - N/A   Clear
9:15 PM 57.2 °F - 37.4 °F 48% 30.02 in 10.0 mi SE 13.8 mph - N/A   Clear
9:35 PM 57.2 °F - 39.2 °F 51% 30.02 in 10.0 mi SSE 10.4 mph 20.7 mph N/A   Clear
9:55 PM 57.2 °F - 39.2 °F 51% 30.02 in 10.0 mi SE 12.7 mph - N/A   Clear
10:15 PM 57.2 °F - 39.2 °F 51% 30.02 in 10.0 mi SE 11.5 mph - N/A   Clear
10:35 PM 55.4 °F - 39.2 °F 54% 30.02 in 10.0 mi SE 11.5 mph - N/A   Clear
10:55 PM 53.6 °F - 39.2 °F 58% 30.01 in 10.0 mi SE 11.5 mph - N/A   Clear
11:15 PM 53.6 °F - 39.2 °F 58% 30.01 in 10.0 mi SE 10.4 mph - N/A   Clear
11:35 PM 53.6 °F - 41.0 °F 62% 30.01 in 10.0 mi SE 8.1 mph - N/A   Clear
11:55 PM 51.8 °F - 41.0 °F 67% 30.01 in 10.0 mi ESE 5.8 mph - N/A   Clear